St. Petersburg, FL

12:28 PM EDT on May 27, 2018 (GMT -0400)
Whitted

Weather History for KSPG - October, 2012

Change the Weather History Date:

Friday, October 19, 2012

  Actual Average Record
Temperature  
Mean Temperature 78 °F -  
Max Temperature 84 °F 82 °F 90 °F (1985)
Min Temperature 73 °F 68 °F 57 °F (1955)
Cooling Degree Days 14    
Growing Degree Days 28 (Base 50)    
Moisture  
Dew Point 72 °F    
Average Humidity 81    
Maximum Humidity 97    
Minimum Humidity 61    
Precipitation  
Precipitation 0.00 in - - ()
Sea Level Pressure  
Sea Level Pressure 29.85 in    
Wind  
Wind Speed 3 mph (WSW)    
Max Wind Speed 9 mph    
Max Gust Speed -    
Visibility 10 miles    
Events      
Averages and records for this station are not official NWS values.
T = Trace of Precipitation, MM = Missing Value Source: NWS Daily Summary

Daily Weather History Graph

Daily Weather History Graph

Search for Another Location

Airport or City:

Astronomy

Oct. 19, 2012 Rise Set
Actual Time 7:33 AM EDT 6:57 PM EDT
Civil Twilight 7:09 AM EDT 7:20 PM EDT
Nautical Twilight 6:42 AM EDT 7:48 PM EDT
Astronomical Twilight 6:15 AM EDT 8:15 PM EDT
Moon 11:57 AM EDT (10/19) 10:50 PM EDT (10/19)
Length of Visible Light 12h 11m
Length of Day
11h 23m
Waxing Crescent, 23% of the Moon is Illuminated
Oct 19
Waxing Crescent
Oct 21
First Quarter
Oct 29
Full
Nov 6
Last Quarter
Nov 13
New

Hourly Weather History & Observations

Time (EDT) Temp. Heat Index Dew Point Humidity Pressure Visibility Wind Dir Wind Speed Gust Speed Precip Events Conditions
12:53 AM 77.0 °F - 73.0 °F 88% 29.87 in 10.0 mi Calm Calm - N/A   Clear
1:53 AM 77.0 °F - 72.0 °F 84% 29.87 in 10.0 mi Calm Calm - N/A   Clear
2:53 AM 75.9 °F - 71.1 °F 85% 29.85 in 10.0 mi Calm Calm - N/A   Clear
3:53 AM 75.0 °F - 71.1 °F 87% 29.84 in 10.0 mi Calm Calm - N/A   Clear
4:53 AM 75.0 °F - 72.0 °F 90% 29.83 in 10.0 mi Calm Calm - N/A   Clear
5:53 AM 75.0 °F - 71.1 °F 87% 29.83 in 10.0 mi Calm Calm - N/A   Clear
6:53 AM 73.9 °F - 73.0 °F 97% 29.84 in 10.0 mi SSW 4.6 mph - N/A   Clear
7:53 AM 75.0 °F - 73.0 °F 94% 29.84 in 10.0 mi Calm Calm - N/A   Clear
8:53 AM 77.0 °F - 75.0 °F 94% 29.86 in 10.0 mi Calm Calm - N/A   Clear
9:29 AM 78.8 °F - 75.2 °F 89% 29.88 in 10.0 mi South 5.8 mph - N/A   Partly Cloudy
9:53 AM 78.1 °F - 75.0 °F 90% 29.88 in 10.0 mi South 9.2 mph - N/A   Scattered Clouds
10:36 AM 80.6 °F 85.4 °F 73.4 °F 79% 29.88 in 10.0 mi SW 8.1 mph - N/A   Mostly Cloudy
10:46 AM 80.6 °F 85.4 °F 73.4 °F 79% 29.88 in 10.0 mi WSW 6.9 mph - N/A   Partly Cloudy
10:53 AM 81.0 °F 85.8 °F 73.0 °F 77% 29.88 in 10.0 mi West 8.1 mph - N/A   Scattered Clouds
11:53 AM 82.0 °F 86.3 °F 71.1 °F 69% 29.88 in 10.0 mi West 9.2 mph - N/A   Partly Cloudy
12:53 PM 82.9 °F 87.0 °F 70.0 °F 65% 29.86 in 10.0 mi WSW 6.9 mph - N/A   Clear
1:53 PM 84.0 °F 87.8 °F 69.1 °F 61% 29.85 in 10.0 mi NNW 8.1 mph - N/A   Clear
2:53 PM 82.9 °F 87.0 °F 70.0 °F 65% 29.83 in 10.0 mi West 4.6 mph - N/A   Clear
3:53 PM 82.9 °F 88.0 °F 72.0 °F 69% 29.82 in 10.0 mi SW 8.1 mph - N/A   Partly Cloudy
4:53 PM 82.0 °F 86.3 °F 71.1 °F 69% 29.81 in 10.0 mi WNW 5.8 mph - N/A   Partly Cloudy
5:53 PM 81.0 °F 85.2 °F 72.0 °F 74% 29.82 in 10.0 mi WSW 8.1 mph - N/A   Mostly Cloudy
6:53 PM 80.1 °F 84.2 °F 73.0 °F 79% 29.81 in 10.0 mi WSW 3.5 mph - N/A   Partly Cloudy
7:53 PM 80.1 °F 84.2 °F 73.0 °F 79% 29.83 in 10.0 mi WSW 4.6 mph - N/A   Clear
8:53 PM 79.0 °F - 73.0 °F 82% 29.85 in 10.0 mi WSW 4.6 mph - N/A   Partly Cloudy
9:53 PM 80.1 °F 84.5 °F 73.9 °F 81% 29.86 in 10.0 mi West 4.6 mph - N/A   Overcast
10:53 PM 79.0 °F - 73.0 °F 82% 29.87 in 10.0 mi WSW 3.5 mph - N/A   Scattered Clouds
11:53 PM 80.1 °F 84.2 °F 73.0 °F 79% 29.87 in 10.0 mi West 4.6 mph - N/A   Scattered Clouds